Location: Praha
(50.0830°N, 14.4670°E)
Time: 07:43:08
(UTC+02:00)

ISS - Pass Details

Date: 03 July 2022
Orbit: 414 x 420 km, 51.6° (Epoch: 02 July)

Event Time Altitude Azimuth Distance (km) Brightness Sun altitude
Exits shadow 03:21:52 17° 229° (SW) 1,149 -2.1 -11.0°
Maximum altitude 03:24:16 54° 155° (SSE) 512 -3.5 -10.8°
Drops below altitude 10° 03:27:35 10° 77° (ENE) 1,501 -0.2 -10.5°
Sets 03:29:42 0° 73° (ENE) 2,369 0.9 -10.3°
